This demonstration page uses our WeatherBlox Daily Observations layout. Learn more.

Left ArrowRight Arrow

39.92423, -83.80882

Hourly Observations for January 3, 2021

Temp ( °F °C ) Dew Point ( °F °C ) Humidity (%) Winds ( mph kmh ) Pressure ( in mb ) Visibility ( mi km ) Precip ( " mm )
12:43 am 00:43 Cloudy with Light Rain 36 2 36 2 100 100 E 3 6 29.96 1015 4 6.43736 0.001 0.001
12:56 am 00:56 Cloudy with Light Rain 36 2.2 36 2.2 100 100 NE 6 9 29.93 1014 4 6.43736 0.01 0.254
1:56 am 01:56 Cloudy with Mist and Fog 36 2.2 36 2.2 100 100 E 3 6 29.94 1014 5 8.0467 0.001 0.001
2:28 am 02:28 Cloudy with Light Rain 36 2 36 2 100 100 Calm 29.95 1014 3 4.82802 0.01 0.254
2:38 am 02:38 Cloudy with Light Rain 36 2 36 2 100 100 Calm 29.95 1014 2.5 4.02335 0.01 0.254
2:56 am 02:56 Cloudy with Light Rain 36 2.2 36 2.2 100 100 N 3 6 29.93 1014 2 3.21868 0.01 0.254
3:30 am 03:30 Cloudy with Light Rain 36 2 36 2 100 100 NW 5 7 29.95 1014 2 3.21868 0.001 0.001
3:40 am 03:40 Cloudy with Light Rain 36 2 36 2 100 100 NW 3 6 29.94 1014 2 3.21868 0.001 0.001
3:49 am 03:49 Cloudy with Light Rain 36 2 36 2 100 100 NNW 3 6 29.93 1014 2 3.21868 0.001 0.001
3:56 am 03:56 Cloudy with Light Rain 36 2.2 36 2.2 100 100 Calm 29.93 1014 1.75 2.816345 0.001 0.001
4:13 am 04:13 Cloudy with Light Rain 36 2 36 2 100 100 Calm 29.94 1014 2 3.21868 0.001 0.001
4:18 am 04:18 Cloudy with Light Rain 36 2 36 2 100 100 W 5 7 29.94 1014 2 3.21868 0.001 0.001
4:27 am 04:27 Cloudy with Mist and Fog 36 2 36 2 100 100 W 6 9 29.95 1014 1.25 2.011675 0.001 0.001
4:36 am 04:36 Cloudy with Mist and Fog 36 2 36 2 100 100 W 8 13 29.95 1014 0.75 1.207005 0.001 0.001
4:49 am 04:49 Cloudy with Fog 36 2 36 2 100 100 WNW 7 11 29.95 1014 0.5 0.80467 0.01 0.254
4:56 am 04:56 Cloudy with Fog 36 2.2 36 2.2 100 100 WNW 8 13 29.94 1014 0.5 0.80467 0.01 0.254
5:10 am 05:10 Cloudy with Mist and Fog 36 2 36 2 100 100 Calm 29.94 1014 1 1.60934 0 0
5:19 am 05:19 Cloudy with Mist and Fog 36 2 36 2 100 100 NW 3 6 29.94 1014 1.25 2.011675 0 0
5:29 am 05:29 Cloudy with Mist and Fog 36 2 36 2 100 100 Calm 29.94 1014 1 1.60934 0 0
5:50 am 05:50 Cloudy with Mist and Fog 36 2 36 2 100 100 Calm 29.94 1014 0.75 1.207005 0 0
5:56 am 05:56 Cloudy with Mist and Fog 35 1.7 35 1.7 100 100 SSE 3 6 29.93 1013 0.75 1.207005 0 0
6:02 am 06:02 Cloudy with Fog 36 2 36 2 100 100 SSE 3 6 29.94 1014 0.5 0.80467 0 0
6:27 am 06:27 Cloudy with Fog 36 2 36 2 100 100 SSW 5 7 29.95 1014 0.5 0.80467 0 0
6:52 am 06:52 Cloudy with Fog 36 2 36 2 100 100 SSW 6 9 29.95 1014 0.25 0.402335 0 0
6:56 am 06:56 Cloudy with Fog 35 1.7 35 1.7 100 100 SSW 3 6 29.94 1014 0.25 0.402335 0 0
7:06 am 07:06 Cloudy with Fog 36 2 36 2 100 100 SSW 6 9 29.95 1014 0.5 0.80467 0 0
7:25 am 07:25 Cloudy with Mist and Fog 36 2 36 2 100 100 SW 6 9 29.96 1015 0.75 1.207005 0 0
7:35 am 07:35 Cloudy with Mist and Fog 36 2 36 2 100 100 SW 9 15 29.96 1015 1.25 2.011675 0 0
7:40 am 07:40 Cloudy with Light Rain 36 2 36 2 100 100 SW 7 11 29.96 1015 3 4.82802 0.01 0.254
7:56 am 07:56 Cloudy with Light Rain 36 2.2 36 2.2 100 100 WSW 8 13 29.95 1014 4 6.43736 0.01 0.254
8:29 am 08:29 Cloudy with Light Rain 36 2 36 2 100 100 WSW 9 15 29.97 1015 5 8.0467 0.001 0.001
8:51 am 08:51 Cloudy with Light Rain 36 2 36 2 100 100 WSW 13 20 29.98 1015 10 16.0934 0.001 0.001
8:56 am 08:56 Cloudy with Light Rain 36 2.2 36 2.2 100 100 W 12 19 29.97 1015 10 16.0934 0.001 0.001
9:56 am 09:56 Cloudy 36 2.2 36 2.2 100 100 WSW 13 20 29.98 1015 10 16.0934 0.001 0.001
10:20 am 10:20 Cloudy 36 2 36 2 100 100 WSW 9 15 30 1016 10 16.0934 0 0
10:56 am 10:56 Cloudy 37 2.8 35 1.7 93 93 W 16 26 29.99 1016 10 16.0934 0.01 0.254
11:56 am 11:56 Cloudy 36 2.2 33 0.6 89 89 WSW 14 22 29.99 1016 10 16.0934 0 0
12:56 pm 12:56 Cloudy 37 2.8 34 1.1 89 89 W 12 19 29.98 1015 10 16.0934 0 0
1:56 pm 13:56 Cloudy 36 2.2 33 0.6 89 89 W 16 26 29.97 1015 10 16.0934 0 0
2:56 pm 14:56 Cloudy 36 2.2 33 0.6 89 89 WSW 12 19 29.98 1015 10 16.0934 0.01 0.254
3:56 pm 15:56 Cloudy 35 1.7 32 0 89 89 W 13 20 30.01 1016 10 16.0934 0 0
4:56 pm 16:56 Cloudy 35 1.7 33 0.6 93 93 W 13 20 30.03 1017 10 16.0934 0 0
5:14 pm 17:14 Cloudy 34 1 34 1 100 100 W 13 20 30.05 1018 10 16.0934 0 0
5:36 pm 17:36 Cloudy 34 1 34 1 100 100 W 10 17 30.06 1018 10 16.0934 0 0
5:56 pm 17:56 Cloudy 34 1.1 33 0.6 97 97 W 10 17 30.05 1018 10 16.0934 0 0
6:23 pm 18:23 Cloudy 34 1 34 1 100 100 W 12 19 30.07 1018 10 16.0934 0 0
6:48 pm 18:48 Cloudy with Light Snow 34 1 34 1 100 100 W 9 15 30.07 1018 7 11.26538 0.001 0.001
6:56 pm 18:56 Cloudy 33 0.6 33 0.6 100 100 W 8 13 30.06 1018 9 14.48406 0.001 0.001
7:23 pm 19:23 Cloudy 34 1 34 1 100 100 W 9 15 30.08 1019 10 16.0934 0 0
7:47 pm 19:47 Cloudy 34 1 34 1 100 100 W 12 19 30.09 1019 10 16.0934 0.01 0.254
7:56 pm 19:56 Cloudy with Light Snow 33 0.6 33 0.6 100 100 WNW 12 19 30.07 1018 4 6.43736 0.01 0.254
8:26 pm 20:26 Cloudy with Light Snow 34 1 34 1 100 100 W 8 13 30.09 1019 6 9.65604 0.001 0.001
8:56 pm 20:56 Cloudy 33 0.6 33 0.6 100 100 W 6 9 30.08 1019 10 16.0934 0.001 0.001
9:56 pm 21:56 Cloudy 33 0.6 33 0.6 100 100 W 6 9 30.08 1019 10 16.0934 0 0
10:46 pm 22:46 Cloudy 34 1 34 1 100 100 Calm 30.09 1019 10 16.0934 0 0
10:56 pm 22:56 Cloudy 33 0.6 33 0.6 100 100 W 3 6 30.07 1018 10 16.0934 0 0
11:56 pm 23:56 Cloudy 33 0.6 32 0 96 96 WNW 6 9 30.06 1018 10 16.0934 0.001 0.001

Powered by AerisWeather